Gwinner, ND

1:58 PM CDT on March 29, 2017 (GMT -0500)
Gwinner-melroe

Weather History for KGWR - March, 2014

Change the Weather History Date:

Monday, March 10, 2014

  Actual Average (KP67) Record (KP67)
Temperature  
Mean Temperature 45 °F -  
Max Temperature 55 °F 22 °F 37 °F (1997)
Min Temperature 35 °F 5 °F -2 °F (1998)
Degree Days  
Heating Degree Days 20    
Moisture  
Dew Point 37 °F    
Average Humidity 79    
Maximum Humidity 100    
Minimum Humidity 51    
Precipitation  
Precipitation 0.00 in - - ()
Sea Level Pressure  
Sea Level Pressure 29.70 in    
Wind  
Wind Speed 11 mph (West)    
Max Wind Speed 15 mph    
Max Gust Speed -    
Visibility 10 miles    
Events      
Averages and records for this station are not official NWS values.
T = Trace of Precipitation, MM = Missing Value Source: NWS Daily Summary

Daily Weather History Graph

Daily Weather History Graph

Search for Another Location

Airport or City:

Trip Planner

Search our weather history database for the weather conditions in past years. The results will help you decide how hot, cold, wet, or windy it might be!

Date:

Astronomy

Mar. 10, 2014 Rise Set
Actual Time 7:52 AM CDT 7:29 PM CDT
Civil Twilight 7:22 AM CDT 7:59 PM CDT
Nautical Twilight 6:48 AM CDT 8:34 PM CDT
Astronomical Twilight 6:12 AM CDT 9:09 PM CDT
Moon 2:01 PM CDT (3/10) 4:19 AM CDT (3/10)
Length of Visible Light 12h 36m
Length of Day
11h 36m
Waxing Gibbous, 70% of the Moon is Illuminated
Mar 10
Waxing Gibbous
Mar 16
Full
Mar 23
Last Quarter
Mar 30
New
Apr 7
First Quarter

Hourly Weather History & Observations

Time (CDT) Temp. Windchill Dew Point Humidity Pressure Visibility Wind Dir Wind Speed Gust Speed Precip Events Conditions
12:15 AM 41.0 °F 33.1 °F 35.6 °F 81% 29.65 in 10.0 mi West 15.0 mph - 0.00 in   Clear
12:35 AM 39.2 °F 31.6 °F 35.6 °F 87% 29.65 in 10.0 mi WSW 12.7 mph - 0.00 in   Clear
12:55 AM 37.4 °F 29.8 °F 35.6 °F 93% 29.64 in 10.0 mi WSW 11.5 mph - 0.00 in   Clear
1:15 AM 37.4 °F 29.3 °F 35.6 °F 93% 29.64 in 10.0 mi WSW 12.7 mph - 0.00 in   Clear
1:35 AM 37.4 °F 29.8 °F 35.6 °F 93% 29.65 in 10.0 mi WSW 11.5 mph - 0.00 in   Clear
1:55 AM 37.4 °F 29.3 °F 35.6 °F 93% 29.65 in 10.0 mi WSW 12.7 mph - 0.00 in   Clear
2:15 AM 39.2 °F 31.6 °F 35.6 °F 87% 29.65 in 10.0 mi WSW 12.7 mph - 0.00 in   Clear
2:35 AM 37.4 °F 30.3 °F 35.6 °F 93% 29.65 in 10.0 mi WSW 10.4 mph - 0.00 in   Clear
2:55 AM 37.4 °F 29.3 °F 35.6 °F 93% 29.66 in 10.0 mi WSW 12.7 mph - 0.00 in   Clear
3:15 AM 37.4 °F 29.8 °F 35.6 °F 93% 29.65 in 10.0 mi SW 11.5 mph - 0.00 in   Clear
3:35 AM 37.4 °F 30.3 °F 35.6 °F 93% 29.64 in 10.0 mi SW 10.4 mph - 0.00 in   Clear
3:55 AM 37.4 °F 30.8 °F 35.6 °F 93% 29.65 in 10.0 mi WSW 9.2 mph - 0.00 in   Clear
4:15 AM 35.6 °F 29.9 °F 35.6 °F 100% 29.64 in 10.0 mi WSW 6.9 mph - 0.00 in   Clear
4:35 AM 35.6 °F 28.0 °F 35.6 °F 100% 29.63 in 10.0 mi SW 10.4 mph - 0.00 in   Clear
4:55 AM 35.6 °F 26.6 °F 35.6 °F 100% 29.63 in 10.0 mi SW 13.8 mph - 0.00 in   Clear
5:15 AM 37.4 °F 29.8 °F 35.6 °F 93% 29.63 in 10.0 mi SW 11.5 mph - 0.00 in   Clear
5:35 AM 37.4 °F 30.8 °F 35.6 °F 93% 29.63 in 10.0 mi WSW 9.2 mph - 0.00 in   Clear
5:55 AM 39.2 °F 32.0 °F 37.4 °F 93% 29.63 in 10.0 mi WSW 11.5 mph - 0.00 in   Clear
6:15 AM 37.4 °F 32.1 °F 35.6 °F 93% 29.65 in 10.0 mi WSW 6.9 mph - 0.00 in   Clear
6:35 AM 37.4 °F 30.8 °F 35.6 °F 93% 29.65 in 10.0 mi SW 9.2 mph - 0.00 in   Clear
6:55 AM 37.4 °F 30.3 °F 35.6 °F 93% 29.66 in 10.0 mi SSW 10.4 mph - 0.00 in   Clear
7:15 AM 35.6 °F 28.6 °F 35.6 °F 100% 29.67 in 10.0 mi SSW 9.2 mph - 0.00 in   Clear
7:35 AM 35.6 °F 30.7 °F 35.6 °F 100% 29.69 in 10.0 mi SSW 5.8 mph - 0.00 in   Clear
7:55 AM 35.6 °F 28.6 °F 35.6 °F 100% 29.69 in 10.0 mi SW 9.2 mph - 0.00 in   Clear
8:15 AM 35.6 °F 28.0 °F 35.6 °F 100% 29.69 in 10.0 mi WSW 10.4 mph - 0.00 in   Clear
8:35 AM 37.4 °F 29.8 °F 35.6 °F 93% 29.69 in 10.0 mi WSW 11.5 mph - 0.00 in   Clear
8:55 AM 37.4 °F 29.3 °F 37.4 °F 100% 29.69 in 10.0 mi West 12.7 mph - 0.00 in   Clear
9:15 AM 39.2 °F 32.5 °F 37.4 °F 93% 29.70 in 10.0 mi West 10.4 mph - 0.00 in   Clear
9:35 AM 41.0 °F 34.7 °F 37.4 °F 87% 29.70 in 10.0 mi West 10.4 mph - 0.00 in   Clear
9:55 AM 42.8 °F 36.2 °F 39.2 °F 87% 29.71 in 10.0 mi West 12.7 mph - 0.00 in   Clear
10:15 AM 44.6 °F 37.8 °F 39.2 °F 81% 29.70 in 10.0 mi WNW 15.0 mph - 0.00 in   Clear
10:35 AM 44.6 °F 38.1 °F 39.2 °F 81% 29.71 in 10.0 mi WNW 13.8 mph - 0.00 in   Clear
10:55 AM 46.4 °F 40.7 °F 39.2 °F 76% 29.71 in 10.0 mi WNW 12.7 mph - 0.00 in   Clear
11:15 AM 46.4 °F 40.4 °F 39.2 °F 76% 29.72 in 10.0 mi West 13.8 mph - 0.00 in   Clear
11:35 AM 46.4 °F 41.1 °F 39.2 °F 76% 29.73 in 10.0 mi WNW 11.5 mph - 0.00 in   Clear
11:55 AM 48.2 °F - 39.2 °F 71% 29.73 in 10.0 mi WNW 13.8 mph - 0.00 in   Clear
12:15 PM 50.0 °F - 39.2 °F 66% 29.73 in 10.0 mi WNW 11.5 mph - 0.00 in   Clear
12:35 PM 51.8 °F - 39.2 °F 62% 29.73 in 10.0 mi WNW 6.9 mph - 0.00 in   Clear
12:55 PM 51.8 °F - 39.2 °F 62% 29.72 in 10.0 mi West 8.1 mph - 0.00 in   Clear
1:15 PM 51.8 °F - 39.2 °F 62% 29.72 in 10.0 mi WNW 6.9 mph - 0.00 in   Clear
1:35 PM 53.6 °F - 37.4 °F 54% 29.72 in 10.0 mi WNW 6.9 mph - 0.00 in   Clear
1:55 PM 53.6 °F - 37.4 °F 54% 29.71 in 10.0 mi NW 6.9 mph - 0.00 in   Clear
2:15 PM 55.4 °F - 39.2 °F 54% 29.70 in 10.0 mi NW 11.5 mph - 0.00 in   Partly Cloudy
2:35 PM 55.4 °F - 39.2 °F 54% 29.70 in 10.0 mi NW 9.2 mph - 0.00 in   Mostly Cloudy
2:55 PM 55.4 °F - 37.4 °F 51% 29.69 in 10.0 mi NW 11.5 mph - 0.00 in   Scattered Clouds
3:15 PM 55.4 °F - 37.4 °F 51% 29.69 in 10.0 mi NW 11.5 mph - 0.00 in   Scattered Clouds
3:35 PM 55.4 °F - 37.4 °F 51% 29.69 in 10.0 mi WNW 11.5 mph - 0.00 in   Scattered Clouds
3:55 PM 53.6 °F - 37.4 °F 54% 29.70 in 10.0 mi WNW 9.2 mph - 0.00 in   Partly Cloudy
4:15 PM 53.6 °F - 35.6 °F 51% 29.70 in 10.0 mi WNW 9.2 mph - 0.00 in   Clear
4:35 PM 53.6 °F - 37.4 °F 54% 29.71 in 10.0 mi WNW 10.4 mph - 0.00 in   Clear
4:55 PM 51.8 °F - 37.4 °F 58% 29.71 in 10.0 mi WNW 10.4 mph - 0.00 in   Clear
5:15 PM 53.6 °F - 37.4 °F 54% 29.71 in 10.0 mi NW 9.2 mph - 0.00 in   Clear
5:35 PM 53.6 °F - 37.4 °F 54% 29.71 in 10.0 mi NW 9.2 mph - 0.00 in   Clear
5:55 PM 50.0 °F - 37.4 °F 62% 29.71 in 10.0 mi NNW 8.1 mph - 0.00 in   Clear
6:15 PM 48.2 °F - 39.2 °F 71% 29.71 in 10.0 mi NW 8.1 mph - 0.00 in   Clear
6:35 PM 46.4 °F 41.9 °F 37.4 °F 71% 29.72 in 10.0 mi NW 9.2 mph - 0.00 in   Clear
6:55 PM 46.4 °F 41.9 °F 37.4 °F 71% 29.72 in 10.0 mi NW 9.2 mph - 0.00 in   Clear
7:15 PM 44.6 °F 39.7 °F 37.4 °F 76% 29.73 in 10.0 mi NW 9.2 mph - 0.00 in   Partly Cloudy
7:35 PM 44.6 °F 39.7 °F 37.4 °F 76% 29.72 in 10.0 mi NNW 9.2 mph - 0.00 in   Clear
7:55 PM 44.6 °F 39.7 °F 37.4 °F 76% 29.72 in 10.0 mi NW 9.2 mph - 0.00 in   Clear
8:15 PM 42.8 °F 38.0 °F 37.4 °F 81% 29.73 in 10.0 mi NW 8.1 mph - 0.00 in   Clear
8:35 PM 44.6 °F 38.8 °F 35.6 °F 71% 29.74 in 10.0 mi WNW 11.5 mph - 0.00 in   Clear
8:55 PM 42.8 °F 36.6 °F 37.4 °F 81% 29.75 in 10.0 mi WNW 11.5 mph - 0.00 in   Clear
9:15 PM 42.8 °F 37.5 °F 37.4 °F 81% 29.75 in 10.0 mi WNW 9.2 mph - 0.00 in   Clear
9:35 PM 42.8 °F 37.0 °F 35.6 °F 76% 29.74 in 10.0 mi WNW 10.4 mph - 0.00 in   Clear
9:55 PM 42.8 °F 37.0 °F 35.6 °F 76% 29.75 in 10.0 mi WNW 10.4 mph - 0.00 in   Clear
10:15 PM 41.0 °F 34.7 °F 35.6 °F 81% 29.75 in 10.0 mi WNW 10.4 mph - 0.00 in   Clear
10:35 PM 41.0 °F 34.7 °F 35.6 °F 81% 29.76 in 10.0 mi NW 10.4 mph - 0.00 in   Clear
10:55 PM 41.0 °F 33.9 °F 35.6 °F 81% 29.76 in 10.0 mi NW 12.7 mph - 0.00 in   Clear
11:15 PM 39.2 °F 32.0 °F 35.6 °F 87% 29.77 in 10.0 mi WNW 11.5 mph - 0.00 in   Clear
11:35 PM 39.2 °F 33.0 °F 35.6 °F 87% 29.77 in 10.0 mi NW 9.2 mph - 0.00 in   Clear
11:55 PM 39.2 °F 32.5 °F 35.6 °F 87% 29.77 in 10.0 mi NW 10.4 mph - 0.00 in   Clear